Regional Weather Roundup
Issued by NWS Mt. Holly, NJ

Home | Current Version | Previous Version | Text Only | Print | Product List | Glossary On
Versions: 1 2 3 4 5 6 7 8 9 10 11 12 13 14 15 16 17 18 19 20 21 22 23 24 25 26 27 28 29 30 31 32 33 34 35 36 37 38 39 40 41 42 43 44 45 46 47 48 49 50
535
ASUS41 KPHI 201711
RWRPHI

REGIONAL WEATHER ROUNDUP
NATIONAL WEATHER SERVICE MOUNT HOLLY NJ
1200 PM EST MON NOV 20 2017

NOTE:  "FAIR" INDICATES FEW OR NO CLOUDS BELOW 12,000 FEET WITH NO
SIGNIFICANT WEATHER AND/OR OBSTRUCTIONS TO VISIBILITY.

 * = STATION DOES NOT REPORT PRECIPITATION (E.G. RAIN, SNOW, ETC.)
        OR FOG.

NJZ015>026-201800-
SOUTHERN NEW JERSEY

CITY           SKY/WX    TMP DP  RH WIND       PRES   REMARKS
POMONA         SUNNY     46  22  38 W20G25    30.11F
MILLVILLE      SUNNY     46  23  40 W15G28    30.13F
WRIGHTSTOWN    SUNNY     45  22  39 W10G22    30.06F
MOUNT HOLLY    SUNNY     44  21  40 W15G23    30.10F
TRENTON        SUNNY     44  22  41 SW13G21   30.06F

$$
NJZ001>014-201800-
NORTHERN NEW JERSEY

CITY           SKY/WX    TMP DP  RH WIND       PRES   REMARKS
SUSSEX         SUNNY     42  22  44 W9G20     30.01S
ANDOVER*         N/A     41  22  46 VRB6G20   30.02F
MORRISTOWN     MOSUNNY   45  19  36 NW14G28   30.04S
NEWARK         MOSUNNY   47  20  34 W18G28    30.03F
TETERBORO      MOSUNNY   45  23  42 W12       30.02F
CALDWELL       MOSUNNY   44  20  38 NW14G25   30.03F
SOMERVILLE     SUNNY     45  22  40 W12G23    30.04F
ALLAIRE*       MOSUNNY   44  20  38 W15G23    30.06F
TOMS RIVER*    SUNNY     45  21  38 W18G26    30.08F

$$
PAZ043-044-047-054-055-060>062-066>071-201800-
EASTERN PENNSYLVANIA

CITY           SKY/WX    TMP DP  RH WIND       PRES   REMARKS
PHILADELPHIA   MOSUNNY   45  21  38 W16G23    30.11F
NORTH PHILA    SUNNY     47  23  38 W15G23    30.10F
BLUE BELL*     SUNNY     43  25  49 W12G20    30.10F
DOYLESTOWN     SUNNY     43  22  43 W12G21    30.06F
QUAKERTOWN*    SUNNY     41  23  48 W8G20     30.07F
PERKASIE*      FAIR      41  23  48 W9G23     30.07F
POTTSTOWN      MOSUNNY   43  23  45 W10G20    30.11F
LANCASTER      SUNNY     43  25  49 W15       30.11F
COATESVILLE    SUNNY     41  23  48 W14G21    30.11F
READING        MOSUNNY   44  26  49 W18G24    30.09F
ALLENTOWN      SUNNY     44  23  43 W17G26    30.06F
MOUNT POCONO   NOT AVBL
HAZLETON       CLOUDY    41  23  48 W8G20     30.04F
LEHIGHTON      FAIR      41  23  48 W10G17    30.06F
WILKES BARRE   PTSUNNY   38  25  59 W13G21    30.02F WCI  30

$$
DEZALL-MDZ008-012-015-019-020-201800-
DELAWARE AND EASTERN MARYLAND

CITY           SKY/WX    TMP DP  RH WIND       PRES   REMARKS
WILMINGTON     SUNNY     46  22  38 W12G21    30.14F
DOVER          SUNNY     46  20  35 W13G21    30.15F
GEORGETOWN     SUNNY     47  24  40 W14G20    30.17F
EASTON         SUNNY     46  21  36 NW10G21   30.22F
ABERDEEN       SUNNY     46  23  40 W8        30.16F
PATUXENT       MOSUNNY   49  23  36 W17G23    30.20F
OCEAN CITY     SUNNY     47  27  45 W14G23    30.18F
WALLOPS ISLAND SUNNY     48  24  39 NW14      30.21F
CAMBRIDGE      SUNNY     46  21  36 W12       30.20F
SALISBURY      SUNNY     46  24  42 W13       30.18F

$$
PAZ001-021-NYZ056-072-MDZ011-DCZ001-201800-
OTHER NEARBY LOCATIONS

CITY           SKY/WX    TMP DP  RH WIND       PRES   REMARKS
HARRISBURG     MOSUNNY   44  25  47 W9        30.12F
STATE COLLEGE  SUNNY     37  27  65 SW17      30.06F WCI  28
WILLIAMSPORT   MOSUNNY   42  25  50 W16G25    30.05F
BINGHAMTON     CLOUDY    31  23  72 W9        29.93F WCI  23
NEW YORK CITY  PTSUNNY   45  22  40 W10G22    30.04F
BALTIMORE      MOSUNNY   45  23  42 W12       30.17F
WASHINGTON DC  MOSUNNY   48  22  35 SW13      30.21F

$$




USA.gov is the U.S. government's official web portal to all federal, state and local government web resources and services.